Location: Newark
(38.7000°N, 9.1833°W)
Time: 17:21:10
(UTC+00:00)

ISS - Visible Passes

Search period start: 20 October 2019 00:00
Search period end: 30 October 2019 00:00
Orbit: 411 x 421 km, 51.6° (Epoch: 20 October)

Date Brightness Start Highest point End Pass type
(mag) Time Alt. Az. Time Alt. Az. Time Alt. Az.
22 Oct -1.3 06:21:15 10° S 06:24:04 25° SE 06:26:54 10° ENE visible
23 Oct -0.7 05:33:46 10° SSE 05:35:39 14° SE 05:37:32 10° E visible
24 Oct -3.6 06:20:05 10° SW 06:23:26 80° SE 06:26:48 10° NE visible
25 Oct -2.6 05:32:25 15° SSW 05:34:52 42° SE 05:38:04 10° ENE visible
26 Oct -1.5 04:46:39 23° ESE 04:46:39 23° ESE 04:49:06 10° ENE visible
26 Oct -3.0 06:19:48 10° WSW 06:22:57 36° NNW 06:26:07 10° NE visible
27 Oct -3.8 05:33:35 48° W 05:34:15 62° NW 05:37:36 10° NE visible
28 Oct -1.6 04:47:25 25° ENE 04:47:25 25° ENE 04:48:58 10° NE visible
28 Oct -2.0 06:20:20 11° WNW 06:22:38 18° NNW 06:25:06 10° NNE visible
29 Oct -2.4 05:34:00 26° NNW 05:34:00 26° NNW 05:36:42 10° NNE visible
